GW4507 Weather Reports


time (UTC)temp
F
wind
direction
speed
knots
gust
knots
rain 1hr
in
rain 24hr
in
rain mn
in
humidity
%
barometer
mb
20260906200016 86 126 6.1 13.0 0.00 0.21 0.21 58 1016.7
20260906194522 86 132 7.8 13.9 0.00 0.21 0.21 55 1016.8
20260906193027 86 157 5.2 11.3 0.00 0.21 0.21 55 1017.2
20260906191528 86 134 6.1 10.4 0.00 0.21 0.21 58 1017.2
20260906190031 85 144 6.1 9.6 0.00 0.21 0.21 56 1017.5
20260906184518 84 58 2.6 5.2 0.00 0.21 0.21 55 1017.3
20260906183020 85 96 4.3 7.8 0.00 0.21 0.21 56 1017.6
20260906181530 84 143 1.7 8.7 0.00 0.21 0.21 57 1017.8
20260906180043 84 144 0.9 7.8 0.00 0.21 0.21 56 1018.0
20260906174547 83 140 3.5 7.8 0.00 0.21 0.21 58 1018.2
20260906173018 83 150 3.5 7.0 0.00 0.21 0.21 59 1018.3
20260906171527 82 234 7.0 11.3 0.00 0.21 0.21 58 1018.3
20260906170028 81 196 7.0 13.9 0.00 0.21 0.21 60 1018.3
20260906164532 81 224 7.0 14.8 0.00 0.21 0.21 60 1018.1
20260906163032 80 211 6.1 14.8 0.00 0.21 0.21 63 1018.0
20260906161525 80 185 9.6 16.5 0.00 0.21 0.21 60 1017.9
20260906160033 79 186 8.7 19.1 0.00 0.21 0.21 63 1017.9
20260906154534 78 178 10.4 20.0 0.00 0.21 0.21 65 1017.6
20260906153030 78 202 7.8 20.0 0.00 0.21 0.21 66 1017.5
20260906151520 77 157 8.7 18.2 0.00 0.21 0.21 67 1017.3
20260906150026 77 169 10.4 19.1 0.00 0.21 0.21 66 1017.2
20260906144508 75 169 9.6 20.0 0.00 0.21 0.21 69 1017.4
20260906143017 75 148 11.3 20.0 0.00 0.21 0.21 69 1017.5
20260906141519 73 148 10.4 19.1 0.00 0.21 0.21 72 1017.4
20260906140026 72 174 9.6 17.4 0.00 0.21 0.21 73 1017.1
20260906134530 72 133 11.3 19.1 0.00 0.21 0.21 74 1017.0
20260906133021 71 149 8.7 16.5 0.00 0.21 0.21 75 1017.2
20260906131518 71 159 7.8 18.2 0.00 0.21 0.21 74 1017.3
20260906130020 70 169 5.2 14.8 0.00 0.21 0.21 75 1017.3
20260906124526 70 143 3.5 7.8 0.00 0.21 0.21 76 1017.0
20260906123012 70 159 3.5 8.7 0.00 0.21 0.21 78 1017.0
20260906121503 70 139 7.0 11.3 0.05 0.21 0.21 77 1016.7
20260906120004 70 198 9.6 15.6 0.09 0.21 0.21 77 1016.6
20260906114503 69 138 8.7 15.6 0.12 0.21 0.21 82 1016.0
20260906113004 69 138 11.3 26.1 0.14 0.21 0.21 81 1015.6
20260906111505 66 120 10.4 13.9 0.12 0.16 0.16 87 1017.5
20260906110005 67 207 3.5 10.4 0.09 0.12 0.12 87 1019.1
20260906104503 66 245 6.1 9.6 0.07 0.09 0.09 88 1018.5
20260906103003 66 277 7.0 12.2 0.05 0.07 0.07 88 1018.7
20260906101514 66 266 9.6 16.5 0.02 0.04 0.04 88 1018.3
20260906100007 66 262 8.7 14.8 0.03 0.03 0.03 87 1018.3
20260906094509 67 248 9.6 14.8 0.02 0.02 0.02 87 1018.0
20260906093004 67 271 7.0 12.2 0.02 0.02 0.02 88 1017.8
20260906091503 67 257 7.8 13.9 0.02 0.02 0.02 86 1018.0
20260906090020 70 257 9.6 18.2 0.00 0.00 0.00 80 1018.6
20260906084507 73 265 4.3 7.8 0.00 0.00 0.00 91 1018.2
20260906083007 73 133 0.0 0.9 0.00 0.00 0.00 90 1017.0
20260906081508 73 133 0.0 2.6 0.00 0.00 0.00 90 1016.7
20260906080008 74 11 0.9 1.7 0.00 0.00 0.00 88 1017.0
20260906074512 74 331 1.7 4.3 0.00 0.00 0.00 87 1017.3
20260906073013 75 248 1.7 6.1 0.00 0.00 0.00 86 1017.0
20260906071512 76 208 2.6 6.1 0.00 0.00 0.00 82 1016.7
20260906070012 77 186 4.3 8.7 0.00 0.00 0.00 80 1016.4
20260906064511 77 173 3.5 7.0 0.00 0.00 0.00 80 1016.3
20260906063028 77 146 5.2 10.4 0.00 0.00 0.00 81 1016.0
20260906061517 77 131 6.1 10.4 0.00 0.00 0.00 81 1016.2
20260906060016 77 115 7.0 9.6 0.00 0.00 0.00 83 1016.3
20260906054519 77 117 4.3 8.7 0.00 0.00 0.00 83 1016.2
20260906053017 76 128 6.1 8.7 0.00 0.00 0.00 85 1016.0
20260906051534 76 92 4.3 7.0 0.00 0.00 0.00 86 1016.2
20260906050023 76 116 0.0 5.2 0.00 0.00 0.00 85 1016.5
20260906044519 76 76 1.7 6.1 0.00 0.00 0.00 86 1016.7
20260906043023 76 69 1.7 3.5 0.00 0.00 0.00 87 1016.8
20260906041520 74 108 0.0 0.0 0.00 0.00 0.00 87 1016.6
20260906040032 75 108 0.0 0.0 0.00 0.00 0.00 86 1016.5
20260906034532 76 108 0.0 0.0 0.00 0.00 0.00 85 1016.5
20260906033023 76 108 0.0 0.0 0.00 0.00 0.00 85 1016.6
20260906031536 76 108 0.0 0.9 0.00 0.00 0.00 86 1016.4
20260906030020 75 108 0.0 0.0 0.00 0.00 0.00 85 1016.4
20260906024526 76 108 0.0 0.0 0.00 0.00 0.00 84 1016.0
20260906023027 77 108 0.0 1.7 0.00 0.00 0.00 81 1016.1
20260906021514 78 108 0.9 2.6 0.00 0.00 0.00 80 1016.1
20260906020022 78 134 0.9 3.5 0.00 0.00 0.00 80 1015.7
20260906014526 78 126 1.7 2.6 0.00 0.00 0.00 78 1015.6
20260906013005 79 130 1.7 6.1 0.00 0.00 0.00 76 1015.4
20260906011510 80 124 2.6 5.2 0.00 0.00 0.00 75 1015.1
20260906010014 80 141 2.6 6.1 0.00 0.00 0.00 73 1015.1
20260906004518 81 146 5.2 8.7 0.00 0.00 0.00 71 1015.0
20260906003020 83 140 5.2 9.6 0.00 0.00 0.00 69 1015.0
20260906001506 85 152 6.1 10.4 0.00 0.00 0.00 68 1015.3
20260906000011 86 141 7.8 12.2 0.00 0.00 0.00 65 1015.5
20260905234518 87 157 7.0 13.9 0.00 0.00 0.00 63 1015.6
20260905233023 87 132 7.0 12.2 0.00 0.00 0.00 62 1015.9
20260905231527 88 132 6.1 9.6 0.00 0.00 0.00 63 1015.7
20260905230008 88 135 6.1 11.3 0.00 0.00 0.00 62 1015.7
20260905224514 88 188 7.8 13.0 0.00 0.00 0.00 63 1015.9
20260905223020 88 129 8.7 14.8 0.00 0.00 0.00 63 1015.7
20260905221527 88 126 8.7 15.6 0.00 0.00 0.00 64 1015.7
20260905220030 89 148 8.7 16.5 0.00 0.00 0.00 63 1015.7
20260905214516 89 138 8.7 16.5 0.00 0.00 0.00 63 1015.8
20260905213020 88 152 7.8 15.6 0.00 0.00 0.00 60 1016.0
20260905211523 89 142 8.7 19.1 0.00 0.00 0.00 62 1016.1
20260905210042 89 177 8.7 17.4 0.00 0.00 0.00 61 1016.2
20260905204534 89 135 11.3 20.0 0.00 0.00 0.00 59 1016.4
20260905203014 88 141 12.2 21.7 0.00 0.00 0.00 60 1016.3
20260905201521 89 134 13.0 20.0 0.00 0.00 0.00 60 1016.5